Dewpoint
26 20 20 19 20 20 20 21 20 23 21 23 27 28 30 34 35 35 34 35 36 36 35 32 29 27 29 31 28 29 26 27 28 29 30 30 32 31 29 27 22 22 21 22
27 21 20 20 22 23 21 20 21 24 23 25 28 33 34 34 33 34 37 37 35 35 32 28 27 27 29 29 27 27 26 25 26 29 29 29 29 29 26 21 21 21 22 22
26 30 30 29 29 22 22 23 24 24 26 25 32 34 34 35 36 37 37 36 35 33 30 27 27 25 24 28 27 26 26 26 26 31 29 27 26 25 20 21 21 21 21 22
27 31 20 24 23 24 24 24 25 25 25 32 33 34 32 37 38 37 36 34 33 30 27 26 23 23 25 27 28 28 27 29 25 30 28 27 27 23 21 21 21 21 22 23
30 27 25 25 27 28 26 26 28 31 33 34 35 34 31 38 37 36 34 32 28 26 26 25 25 24 23 22 22 22 24 30 32 28 26 28 25 21 21 21 21 22 22 25
31 27 22 25 28 30 29 26 36 36 37 36 35 32 35 36 36 30 28 25 24 24 23 25 24 24 22 21 20 21 27 30 29 27 25 26 29 26 22 22 21 27 27 27
30 27 28 28 30 31 25 32 39 38 38 37 35 36 35 33 30 26 23 21 19 19 20 21 21 21 19 18 17 20 25 28 31 35 36 35 33 25 23 23 23 27 28 28
30 28 25 30 30 32 37 39 40 38 38 37 35 34 29 25 23 21 17 15 14 15 17 19 19 18 17 17 19 23 27 29 30 33 34 33 29 25 24 22 24 25 24 24
32 31 34 35 37 41 41 39 39 38 37 35 32 27 24 22 20 15 15 15 16 16 17 18 18 18 18 19 24 26 26 27 29 33 34 32 32 27 21 21 24 24 22 21
32 32 31 38 41 40 39 38 38 38 33 29 27 22 22 18 15 16 17 17 17 17 17 18 18 19 22 25 26 26 27 26 26 27 28 28 26 24 22 23 23 22 21 19
33 34 35 41 41 41 39 39 37 31 28 24 23 21 17 16 16 17 18 18 18 18 18 19 20 23 25 26 27 28 27 27 26 28 27 27 25 24 22 24 22 20 20 19
35 38 38 40 41 40 38 35 31 24 23 23 19 16 17 18 18 17 17 18 18 19 20 22 24 26 26 27 28 27 27 26 27 27 28 27 25 23 23 23 23 22 20 18
37 40 41 41 41 38 33 30 24 24 21 16 17 17 17 16 16 18 19 20 21 21 24 27 29 29 27 29 29 28 27 26 23 23 28 27 26 25 24 25 25 25 23 20
38 40 38 37 35 33 27 25 22 16 16 17 17 16 16 19 21 21 21 23 25 26 27 28 29 30 31 31 28 26 26 24 26 27 28 27 26 22 25 25 23 23 26 22
37 39 39 39 30 26 23 17 16 16 17 16 16 20 23 23 23 24 25 27 29 29 29 29 30 29 29 28 26 24 24 22 24 24 27 27 25 26 25 24 23 22 21 21
33 30 29 26 23 19 17 16 17 18 17 18 23 26 26 26 26 27 27 28 29 28 31 32 31 30 29 27 25 24 22 24 24 23 26 27 26 24 24 24 23 22 21 22
30 28 25 22 19 18 18 19 21 21 23 26 27 29 29 29 30 28 29 30 29 30 32 33 32 28 29 28 25 23 21 25 26 26 24 27 24 25 25 24 24 23 22 21
27 24 19 18 18 19 22 25 25 26 26 29 29 30 30 30 29 29 28 28 29 30 31 33 33 29 28 26 25 23 22 22 26 27 27 25 26 23 23 25 25 24 24 21
19 18 18 18 20 24 26 26 26 28 29 30 30 30 30 30 28 28 29 29 28 27 30 34 31 28 26 24 23 23 24 26 25 25 26 26 27 25 25 25 25 24 22 22
17 17 19 20 24 26 27 28 29 30 30 30 30 30 29 28 29 29 28 28 29 30 33 33 29 27 26 25 24 23 22 23 25 25 26 26 26 25 26 25 25 25 24 23
20 23 23 26 27 30 30 30 31 30 31 32 31 29 29 29 29 30 30 27 28 32 33 32 29 27 27 26 26 26 26 27 26 26 26 26 26 26 26 26 25 25 25 24
23 23 23 26 28 29 31 31 32 32 32 31 30 30 30 29 30 28 29 30 31 33 33 31 29 28 27 24 23 24 26 27 26 25 26 26 26 25 25 25 25 25 25 24
25 25 25 26 27 29 31 32 31 31 31 31 31 29 29 30 30 29 28 30 34 33 32 33 32 30 28 26 27 27 28 27 27 26 26 26 26 26 26 25 25 25 23 23
26 26 26 27 29 30 30 31 31 32 32 32 31 31 31 31 30 30 31 31 33 32 31 31 32 31 28 29 28 27 28 28 28 27 27 25 26 27 28 26 25 25 25 24
26 27 28 28 29 30 31 31 30 28 29 30 29 30 31 32 30 29 32 32 33 32 31 32 31 30 30 29 28 28 28 28 27 27 26 26 24 25 26 26 27 26 26 25
27 27 28 28 28 29 30 30 29 31 31 29 29 29 31 33 33 32 32 32 32 32 32 32 31 31 30 29 29 29 28 28 27 26 26 26 25 24 25 25 26 27 27 26
28 28 29 29 29 29 29 30 31 32 31 30 29 30 29 29 30 31 31 32 32 31 32 32 32 31 30 30 29 29 29 29 28 26 26 26 24 24 25 25 26 26 26 26
Wind_Speed
7 10 9 11 13 13 15 16 17 16 20 14 9 9 12 17 17 18 19 16 17 17 16 14 14 12 13 11 13 9 11 12 12 13 2 4 6 10 12 13 11 13 14 14
3 5 10 16 19 15 15 16 13 13 15 14 7 17 16 16 21 17 15 15 18 16 17 15 14 14 12 12 12 10 11 11 14 4 7 6 7 10 11 10 10 12 12 14
3 11 13 4 2 6 9 8 10 9 13 10 17 17 18 17 16 14 16 16 17 17 16 15 15 17 18 13 14 13 19 16 13 3 9 6 8 10 11 9 10 11 12 12
4 7 3 4 17 13 8 7 10 13 11 15 12 16 21 13 13 16 18 17 16 15 15 14 15 18 18 15 17 16 16 20 19 7 8 6 8 10 5 8 10 12 11 7
2 4 12 10 3 5 6 13 11 7 14 15 17 21 10 12 15 15 15 15 16 16 18 16 18 18 20 22 24 24 20 20 20 14 10 7 9 7 5 9 12 9 10 10
3 2 4 3 7 4 6 13 10 13 11 13 16 13 8 14 14 15 16 17 19 19 16 16 15 19 20 22 24 22 20 18 13 17 16 5 10 10 9 11 9 8 7 9
7 6 8 9 6 1 4 3 10 8 7 11 7 6 12 12 14 16 18 19 20 20 20 20 20 19 19 21 22 23 23 21 18 15 11 7 8 11 11 8 10 6 8 9
5 5 8 2 4 1 6 11 7 8 7 6 7 9 11 13 15 18 19 22 22 22 21 19 19 19 19 19 20 19 20 20 18 13 11 6 9 10 9 8 7 11 12 13
12 8 10 9 5 7 9 8 7 6 4 7 9 10 12 14 17 18 21 21 22 20 22 21 19 17 19 18 17 17 17 16 16 15 10 9 9 12 8 9 9 9 10 13
7 11 12 6 11 13 7 5 3 4 6 6 9 11 14 17 18 19 19 20 18 22 21 19 19 18 16 17 17 17 14 15 14 13 10 10 8 10 10 10 8 7 9 11
14 15 8 10 8 5 3 1 3 2 5 6 9 14 16 17 18 17 18 18 22 20 19 21 22 19 18 16 14 12 14 14 15 13 10 7 8 9 9 7 4 6 7 7
15 2 5 4 7 3 2 4 1 3 7 9 12 15 18 18 18 18 20 21 20 20 21 19 20 19 18 13 9 9 10 11 12 12 11 8 8 9 4 2 3 5 4 3
2 9 10 9 5 4 2 1 1 5 8 12 14 16 17 18 17 21 20 21 21 21 18 18 19 17 14 7 6 6 6 9 9 10 7 7 8 8 10 8 8 11 7 8
7 10 5 6 4 7 4 1 3 8 11 13 14 14 16 17 18 19 20 21 22 21 16 16 15 15 12 9 8 7 5 9 5 5 6 6 7 9 8 9 10 11 7 9
4 4 6 9 6 6 1 4 7 10 12 13 13 13 14 17 19 20 19 20 18 19 18 16 12 15 15 9 9 10 11 5 3 7 5 6 7 7 8 9 9 11 10 1
8 9 9 5 2 2 3 7 9 11 12 12 12 10 13 16 17 18 17 17 17 21 20 17 13 12 11 9 9 11 6 2 3 7 6 6 5 6 8 7 8 9 9 4
10 8 5 2 1 4 6 8 8 10 11 11 11 12 14 15 15 16 17 15 16 19 19 16 14 10 9 6 10 10 5 5 5 7 9 6 6 7 6 7 8 9 8 1
6 7 4 2 4 6 7 6 6 8 9 11 15 15 14 13 16 19 19 20 19 19 18 16 12 8 9 8 6 6 7 8 7 8 8 6 7 6 9 9 8 8 7 4
6 3 3 4 6 5 5 8 8 10 14 13 14 16 14 13 15 16 17 18 19 20 16 9 8 7 8 7 4 7 6 7 8 9 9 9 8 8 8 8 8 6 8 8
5 5 6 7 7 7 9 10 11 12 13 12 13 14 15 15 14 17 17 18 20 19 14 8 8 8 9 7 6 7 7 8 9 10 10 9 9 9 6 8 9 9 8 7
4 6 6 6 8 8 11 13 13 14 13 10 13 15 16 16 16 17 18 17 17 12 11 8 9 9 10 11 9 9 10 10 9 10 9 9 8 9 9 7 8 9 7 6
5 8 9 10 11 13 12 13 12 13 14 14 13 14 14 17 16 16 17 19 16 9 8 8 9 12 11 4 6 7 7 9 9 9 9 9 9 8 6 6 8 9 8 7
9 10 11 12 13 15 13 12 16 15 13 13 14 15 16 15 15 16 21 14 13 11 10 10 11 11 10 9 7 7 9 11 11 10 10 10 11 11 9 7 7 7 8 8
11 12 13 11 12 13 17 17 15 15 15 16 14 14 15 14 13 12 14 17 15 15 9 9 9 11 11 8 9 10 11 12 11 10 9 10 11 10 10 11 10 8 8 9
12 12 12 14 15 15 17 18 14 10 8 7 12 14 15 11 14 17 14 15 15 14 11 11 13 13 10 10 11 12 12 12 10 9 8 8 10 12 10 10 10 10 10 9
12 12 12 14 15 16 16 14 13 10 6 12 12 13 13 13 14 16 15 14 14 13 13 12 11 12 11 12 13 14 14 12 11 10 9 8 7 9 11 11 11 9 9 10
12 12 13 14 14 15 16 13 9 6 7 11 16 12 15 16 16 16 16 14 13 14 14 13 12 14 14 14 14 13 13 12 12 10 9 7 7 8 9 8 7 7 9 10
Wind_Direction
312 310 311 307 296 290 280 272 265 274 275 290 2 329 20 31 6 348 336 345 3 341 327 314 321 328 322 345 324 328 319 304 306 296 70 351 335 312 314 315 326 335 330 326
284 281 341 303 295 287 280 276 280 314 306 331 330 43 15 355 340 338 7 346 341 334 315 315 323 326 318 303 302 308 298 294 280 34 340 318 320 303 298 319 336 325 326 321
263 348 319 306 268 345 320 318 308 288 286 331 25 11 357 355 3 3 347 338 325 311 309 336 333 327 317 315 315 332 304 313 305 281 257 266 294 302 305 333 322 321 316 320
286 327 331 28 323 287 313 325 324 304 320 57 17 359 350 38 12 343 333 325 315 310 320 322 322 315 321 327 301 296 306 296 282 231 249 261 272 276 306 320 310 304 306 1
258 267 294 301 59 35 352 312 321 5 11 360 357 352 345 23 353 325 319 313 307 323 325 320 329 330 343 337 326 321 312 360 338 299 263 264 274 300 332 310 298 315 341 355
141 232 263 324 50 71 303 275 36 4 9 359 352 327 309 334 325 317 315 322 318 313 319 323 345 348 339 332 327 334 355 316 309 313 308 337 11 326 310 301 328 39 7 346
216 255 274 283 16 11 256 346 19 38 15 352 334 279 301 307 309 324 321 320 337 340 341 344 344 344 338 327 328 342 350 350 358 358 1 21 330 306 314 332 353 38 17 350
200 239 264 314 333 221 334 344 33 13 14 316 308 304 314 336 325 321 333 340 341 342 339 340 341 334 328 334 339 344 347 340 334 322 304 262 245 269 310 327 17 22 354 339
188 220 213 107 126 87 65 72 31 342 316 288 303 329 334 316 324 336 341 341 341 340 337 323 321 326 331 331 355 346 337 338 341 330 321 324 335 286 346 23 36 9 346 325
226 250 273 47 85 99 66 15 341 240 283 318 326 322 316 330 335 338 336 329 337 327 312 317 328 341 352 3 352 342 341 333 329 317 297 294 1 351 9 11 5 342 327 332
269 268 278 115 129 121 30 136 227 253 327 325 320 326 327 326 328 327 325 335 327 319 327 335 336 345 354 352 350 343 339 334 326 346 1 4 15 24 12 43 38 328 323 336
264 280 220 126 141 118 158 196 95 334 330 331 323 333 341 335 334 336 338 325 323 329 328 335 338 342 339 336 345 340 339 332 344 348 347 5 360 346 25 22 306 276 261 265
5 86 80 119 158 187 209 132 339 325 313 329 349 342 339 333 333 334 328 327 326 323 334 342 335 328 331 351 345 332 324 319 321 325 345 348 350 355 335 327 268 264 241 259
103 116 105 163 172 174 167 230 333 333 339 349 342 346 337 333 327 326 324 324 326 324 332 323 316 324 342 324 326 319 289 299 293 333 343 337 339 318 311 310 320 323 219 240
137 176 170 192 164 179 93 354 335 332 341 338 345 338 332 327 321 320 323 321 328 323 317 316 309 312 313 308 296 285 275 256 315 318 299 298 302 311 311 308 315 319 327 144
164 156 143 156 124 53 344 335 336 332 334 331 330 322 325 316 314 313 312 330 332 320 312 304 288 302 287 285 304 299 316 99 304 296 279 286 298 304 298 307 313 315 321 11
163 171 128 114 309 339 331 334 342 329 315 310 310 320 313 309 303 308 315 317 310 302 299 287 275 291 290 275 283 289 308 321 272 276 277 262 283 289 312 303 298 304 318 149
109 92 91 56 338 322 333 352 330 306 303 311 308 307 305 300 302 311 317 321 314 304 293 274 252 252 251 257 294 329 311 294 295 283 283 270 267 286 284 280 285 297 314 315
108 89 32 340 346 4 332 307 311 311 302 299 300 301 296 296 309 312 314 309 304 304 304 281 227 218 248 268 254 285 290 279 285 288 282 275 257 266 270 279 289 289 292 292
40 11 356 334 341 317 300 297 297 295 289 296 303 305 306 306 309 305 303 294 288 282 297 238 193 214 234 249 220 252 279 274 277 276 277 272 268 271 277 279 273 272 273 280
328 307 303 294 294 290 288 290 292 289 290 287 293 295 292 298 299 302 298 298 298 298 288 234 211 230 243 226 201 231 248 257 272 276 279 283 289 280 269 275 285 284 278 282
318 321 315 304 297 294 284 279 271 278 287 288 280 281 286 295 297 304 294 278 295 304 258 233 222 231 252 222 251 278 255 252 258 274 280 279 280 285 293 289 286 290 279 267
311 304 298 289 280 277 281 284 284 279 273 269 273 283 280 278 285 298 304 313 297 304 283 242 242 235 227 223 243 264 268 267 262 256 264 274 274 270 261 253 262 276 283 277
285 284 282 288 291 291 288 286 272 260 244 257 262 277 282 280 286 287 286 307 294 299 274 266 284 245 229 227 241 248 257 264 255 252 261 275 279 286 263 252 244 241 249 265
295 291 286 282 278 275 269 270 263 274 296 315 317 309 299 281 282 298 286 296 289 287 268 260 255 245 238 240 245 248 253 258 250 248 257 269 282 281 290 290 265 245 234 236
289 289 288 285 280 279 278 279 278 290 322 311 305 302 299 293 285 287 284 285 287 281 271 256 248 244 234 241 244 245 253 252 246 246 246 253 270 284 284 287 293 290 265 235
288 284 284 286 283 284 280 279 278 282 309 296 293 300 306 302 298 293 293 290 287 282 268 261 251 243 239 237 240 247 252 242 238 238 238 234 250 264 274 284 292 301 301 299